This is the latest recevied weather packets stored in our database for station/object HB9MIR-13. If no packets are shown the sender has not sent any weather packets the latest 10 day(s).
| Time | Temp. | Humidity | Pressure | Rain* | Wind** | Luminosity | Snow |
|---|---|---|---|---|---|---|---|
| 1777798248 | 20.56° C | 49% | 1014.2 hPa | 0 mm | - | 495 W/m² | - |
| 1777797560 | 21.11° C | 48% | 1014.6 hPa | 0 mm | - | 515 W/m² | - |
| 1777796885 | 19.44° C | 55% | 1014.6 hPa | 0 mm | - | 533 W/m² | - |
| 1777796188 | 18.89° C | 59% | 1014.7 hPa | 0 mm | - | 485 W/m² | - |
| 1777795497 | 18.33° C | 55% | 1014.8 hPa | 0 mm | - | 487 W/m² | - |
| 1777794809 | 17.78° C | 61% | 1014.9 hPa | 0 mm | - | 423 W/m² | - |
| 1777794122 | 16.67° C | 67% | 1014.8 hPa | 0 mm | - | 414 W/m² | - |
| 1777793438 | 15.56° C | 67% | 1014.9 hPa | 0 mm | - | 119 W/m² | - |
| 1777792746 | 15° C | 66% | 1015 hPa | 0 mm | - | 109 W/m² | - |
| 1777792071 | 14.44° C | 75% | 1015.1 hPa | 0 mm | - | 112 W/m² | - |
| 1777791370 | 13.89° C | 72% | 1015.1 hPa | 0 mm | - | 111 W/m² | - |
| 1777790683 | 13.33° C | 79% | 1015.2 hPa | 0 mm | - | 110 W/m² | - |
| 1777789998 | 12.78° C | 82% | 1015.1 hPa | 0 mm | - | 88 W/m² | - |
| 1777789306 | 12.78° C | 82% | 1015.2 hPa | 0 mm | - | 89 W/m² | - |
| 1777788571 | 12.22° C | 82% | 1015.1 hPa | 0 mm | - | 96 W/m² | - |
| 1777787866 | 11.67° C | 82% | 1015.2 hPa | 0 mm | - | 106 W/m² | - |
| 1777787179 | 11.67° C | 85% | 1015.1 hPa | 0 mm | - | 95 W/m² | - |
| 1777786492 | 11.11° C | 86% | 1015 hPa | 0 mm | - | 68 W/m² | - |
| 1777785806 | 11.11° C | 86% | 1015 hPa | 0 mm | - | 49 W/m² | - |
| 1777785123 | 10.56° C | 87% | 1015 hPa | 0 mm | - | 40 W/m² | - |
| 1777784433 | 10° C | 88% | 1015 hPa | 0 mm | - | 35 W/m² | - |
| 1777783762 | 10.56° C | 88% | 1015 hPa | 0 mm | - | 29 W/m² | - |
| 1777783057 | 10° C | 87% | 1014.9 hPa | 0 mm | - | 17 W/m² | - |
| 1777782369 | 10.56° C | 86% | 1014.9 hPa | 0 mm | - | 11 W/m² | - |
| 1777781694 | 10° C | 87% | 1014.7 hPa | 0 mm | - | 5 W/m² | - |
* Rain latest hour (hover to see other rain measurements)
** Current wind speed in m/s (hover to see current wind gust speed)